Regional Weather Roundup
Issued by NWS

Home | Current Version | Previous Version | Text Only | Print | Product List | Glossary Off
Versions: 1 2 3 4 5 6 7 8 9 10 11 12 13 14 15 16 17 18 19 20 21 22 23 24 25 26 27 28 29 30 31 32 33 34 35 36 37 38 39 40 41 42 43 44 45 46 47 48 49 50

000
ASUS43 KFSD 191002
RWRSD

WEATHER ROUNDUP FOR SOUTH DAKOTA
NATIONAL WEATHER SERVICE SIOUX FALLS SD
500 AM CDT TUE SEP 19 2017

NOTE: "FAIR" INDICATES FEW OR NO CLOUDS BELOW 12,000 FEET WITH NO
SIGNIFICANT WEATHER AND/OR OBSTRUCTIONS TO VISIBILITY.


SDZ001>005-009-010-012>017-191100-
NORTHWEST AND NORTH CENTRAL SOUTH DAKOTA

CITY           SKY/WX    TMP DP  RH WIND       PRES   REMARKS
BUFFALO          N/A     63  43  48 S22G28    29.40F
MOBRIDGE       CLOUDY    64  58  80 SE14      29.60F
$$

SDZ012>016-024>037-041>051-057-063-072>074-191100-
SOUTHWEST AND SOUTH CENTRAL SOUTH DAKOTA

CITY           SKY/WX    TMP DP  RH WIND       PRES   REMARKS
RAPID CTY ARPT NOT AVBL
PIERRE         CLEAR     61  58  90 SE14      29.62F
CUSTER         CLOUDY    59  40  49 S12G23    29.71F
ELLSWORTH AFB  CLOUDY    61  44  53 S14       29.56F
PHILIP         CLOUDY    66  54  65 VRB5      29.58F
PINE RIDGE     CLOUDY    66  54  65 S16G25    29.65F
SPEARFISH      FAIR      68  37  32 SE9G17    29.57F
WINNER         FAIR      65  60  84 S14       29.68F
$$

SDZ004>011-016>023-039-040-191100-
NORTHEAST SOUTH DAKOTA

CITY           SKY/WX    TMP DP  RH WIND       PRES   REMARKS
ABERDEEN       CLOUDY    63  63 100 SE12      29.72F
WATERTOWN      CLOUDY    64  64 100 SE13      29.78F FOG
BROOKINGS      CLOUDY    65  64  97 S13       29.81F
SISSETON         N/A     64  64 100 SE8       29.78S
$$

SDZ017-020-022-023-036>040-048>070-191100-
SOUTHEAST SOUTH DAKOTA

CITY           SKY/WX    TMP DP  RH WIND       PRES   REMARKS
SIOUX FALLS    CLOUDY    67  66  97 S9        29.81S FOG
HURON          CLOUDY    66  65  96 S14       29.73F
CHAMBERLAIN    PTCLDY    61  61 100 E10       29.69S FOG
MITCHELL       CLOUDY    67  65  93 SE15G23   29.75F
YANKTON        CLOUDY    67  65  93 SE12      29.78F
$$

ABBREVIATIONS USED IN REMARKS
   TC - TEMPERATURE IN CELSIUS
  WCI - WIND CHILL INDEX
   HX - HEAT INDEX
  VSB - VISIBILITY





USA.gov is the U.S. government's official web portal to all federal, state and local government web resources and services.